Zurück zum Katalog

OPS 9442 (DSCS 2-12) DEB

AktivMEO
NORAD 59992·DEBRIS·🇺🇸 United States

Gestartet Dec 14, 1978 von Cape Canaveral Space Force Station

Loading…

Nächste Überflüge (nächste 24 Stunden)

TLE

AktuellSource: Space-Track

Epoche: Sep 14, 2026, 22:20 UTC

1 59992U 78113H   26257.93092744 -.00000259  00000-0  00000-0 0  9991
2 59992   8.1576 302.2791 0212456 110.0525 276.1501  0.98333253 59777

Verfolge OPS 9442 (DSCS 2-12) DEB in Echtzeit mit AllMySat

Download on the App Store